Regional Weather Roundup
Issued by NWS

Home | Current Version | Previous Version | Text Only | Print | Product List | Glossary On
Versions: 1 2 3 4 5 6 7 8 9 10 11 12 13 14 15 16 17 18 19 20 21 22 23 24 25 26 27 28 29 30 31 32 33 34 35 36 37 38 39 40 41 42 43 44 45 46 47 48 49 50
000
ASUS44 KJAN 310203
RWRMS

MISSISSIPPI HOURLY WEATHER ROUNDUP
NATIONAL WEATHER SERVICE JACKSON MS
900 PM CDT THU JUL 30 2015

NOTE: "FAIR: INDICATES FEW OR NO CLOUDS BELOW 12,000 FEET WITH NO
SIGNIFICANT WEATHER AND/OR OBSTRUCTIONS TO VISIBILITY.

MSZ001>002-007>008-010>013-018>021-025>028-034>036-310300-
NORTHWEST MISSISSIPPI

CITY           SKY/WX    TMP DP  RH WIND       PRES   REMARKS
CLARKSDALE     FAIR      75  68  78 N7        30.06S
CLEVELAND      FAIR      75  69  80 N9        30.04S
GREENWOOD      CLEAR     78  68  71 N7        30.03R
GREENVILLE     CLEAR     77  66  68 N7        30.03S
OLIVE BRANCH     N/A     75  64  69 N7        30.08
OXFORD         FAIR      75  63  64 CALM      30.08R
TUNICA         CLEAR     75  64  69 N8        30.08R
$$

MSZ003>006-009-014>017-022>024-029>033-037>039-310300-
NORTHEAST MISSISSIPPI

CITY           SKY/WX    TMP DP  RH WIND       PRES   REMARKS
COLUMBUS AFB   CLEAR     79  66  62 N8        30.01R
CORINTH        FAIR      75  63  64 CALM      30.06R
GOLDN TRIANGLE CLEAR     81  63  54 N9        30.00S
STARKVILLE     FAIR      79  66  65 N3        30.02S
TUPELO         CLEAR     77  65  66 N6        30.05R
$$

MSZ040-058-310300-
CENTRAL MISSISSIPPI

CITY           SKY/WX    TMP DP  RH WIND       PRES   REMARKS
JACKSON INTL   MOCLDY    87  74  64 N8        29.99R HX  95
JACKSON HAWKNS PTCLDY    87  75  67 VRB3      30.00R HX  96
MERIDIAN KEY   MOCLDY    84  75  74 N7        29.99R HX  92
MERIDIAN NAS   PTCLDY    84  74  71 NW5       29.99R HX  91
VICKSBURG      PTCLDY    86  74  67 N8        30.00R HX  94
$$

MSZ059>079-310300-
SOUTH MISSISSIPPI

CITY           SKY/WX    TMP DP  RH WIND       PRES   REMARKS
BROOKHAVEN     DRIZZLE   73  73 100 CALM      30.02R
HATTIESBURG    LGT RAIN  76  73  91 S3        30.00R
MCCOMB         CLOUDY    75  73  93 CALM      30.00R
NATCHEZ        CLOUDY    77  73  88 CALM      30.02R
PINE BELT      CLOUDY    75  72  88 CALM      30.01R
$$

MSZ080>082-310300-
COASTAL MISSISSIPPI

CITY           SKY/WX    TMP DP  RH WIND       PRES   REMARKS
BILOXI         LGT RAIN  77  73  88 VRB2      29.94F
PASCAGOULA     LGT RAIN  74  73  97 VRB3      29.96R
GULFPORT       LGT RAIN  77  74  90 CALM      29.96S
$$



USA.gov is the U.S. government's official web portal to all federal, state and local government web resources and services.